シュヴァスマン-ヴァハマン第3彗星

73P/Schwassmann-Wachmann 3 (2022)

English version
Home page
Updated on November 4, 2020

---------------------------------------------------------------------

・ プロフィール

・ 軌道要素

Epoch 2022 Aug. 9.0 TT = JDT 2459800.5
T 2022 Aug. 25.67130 TT                                 MPCW
q   0.9729583            (2000.0)            P               Q
n   0.18130187     Peri.  199.48669     -0.02173748     +0.98296364
a   3.0917274      Node    69.61070     -0.88949073     +0.06432871
e   0.6853027      Incl.   11.22774     -0.45643589     -0.17217520
P   5.44
From 1060 observations 2010 Nov. 28-2017 June 30, mean residual 0".8.
     Nongravitational parameters A1 = +0.55, A2 = -0.0141.

・ 星図

・ 光度変化

        m1 =  9.7 + 5 logΔ + 16.5 log r  [   ,-76]  (              〜2022年 6月10日)
        m1 = 11.2 + 5 logΔ +  6.5 log r  [-76,  0]  (2022年 6月10日〜2022年 8月25日)
        m1 = 11.4 + 5 logΔ + 15.0 log r  [  0,   ]  (2022年 8月25日〜              )

---------------------------------------------------------------------

軌道要素はM.P.E.C. 2017-T14に掲載されたものです。
星図はステラナビゲータ Ver.10 (アストロアーツ) で作成したものです。
光度グラフはComet for Windowsで作成したものです。

---------------------------------------------------------------------

Copyright(C) Seiichi Yoshida (comet@aerith.net). All rights reserved.